Total_Precipitation_Accumulation
2.79 2.87 2.81 2.70 2.51 2.39 2.24 2.14 2.06 2.00 1.98 1.98 2.00 2.03 2.05 2.03 2.09 2.07 1.92 1.95 2.00 2.17 2.28 2.33 2.36 2.39 2.50 2.48 2.50 2.55 2.66 2.85 2.94 2.71 2.53 2.46 2.45 2.34 2.19 1.98 1.86 1.86 1.80
2.45 2.50 2.53 2.47 2.31 2.12 1.99 1.90 1.89 1.88 1.85 1.87 1.88 1.85 1.89 2.00 2.09 2.01 1.86 1.82 1.95 2.09 2.21 2.35 2.30 2.24 2.27 2.31 2.39 2.40 2.41 2.58 2.74 2.67 2.51 2.38 2.37 2.34 2.27 2.17 1.81 1.63 1.60
2.34 2.36 2.36 2.41 2.28 2.08 1.98 1.98 1.97 1.91 1.87 1.84 1.80 1.80 1.84 1.91 1.94 1.86 1.78 1.73 1.79 1.89 1.99 2.05 2.08 2.10 2.02 2.01 2.06 2.14 2.14 2.17 2.42 2.45 2.33 2.26 2.19 2.15 2.23 2.16 1.94 1.94 1.55
2.26 2.19 2.02 1.94 1.95 1.96 1.93 1.89 1.84 1.79 1.81 1.84 1.84 1.83 1.80 1.72 1.59 1.53 1.52 1.55 1.59 1.60 1.65 1.67 1.75 1.88 1.90 1.91 1.85 1.94 2.03 2.18 2.28 2.32 2.20 2.13 2.14 2.02 2.11 2.10 2.05 1.91 1.70
2.47 2.33 2.14 1.93 1.92 1.94 1.89 1.82 1.76 1.70 1.61 1.69 1.75 1.68 1.55 1.40 1.22 1.23 1.30 1.31 1.42 1.44 1.45 1.38 1.38 1.61 1.77 1.72 1.55 1.72 1.96 2.13 2.19 2.21 2.09 1.97 1.90 2.00 1.96 1.90 1.95 1.94 1.84
2.37 2.42 2.44 2.34 2.30 2.16 1.96 1.86 1.85 1.83 1.78 1.71 1.69 1.61 1.46 1.18 1.19 1.14 1.23 1.36 1.46 1.44 1.46 1.46 1.35 1.39 1.47 1.43 1.34 1.47 1.74 1.83 1.95 2.12 2.09 1.97 1.88 1.90 1.94 1.94 2.00 2.09 2.04
2.43 2.50 2.48 2.43 2.33 2.23 1.99 1.88 1.92 1.90 1.86 1.78 1.64 1.59 1.54 1.44 1.31 1.10 1.11 1.26 1.37 1.38 1.40 1.43 1.26 1.17 1.36 1.38 1.38 1.36 1.42 1.45 1.57 1.92 2.12 1.97 1.93 1.99 2.14 2.08 2.18 2.19 2.03
2.60 2.59 2.48 2.31 2.25 2.16 2.08 2.03 1.98 1.91 1.84 1.78 1.70 1.58 1.46 1.22 1.08 0.95 0.98 1.09 1.30 1.34 1.32 1.37 1.43 1.33 1.26 1.32 1.33 1.33 1.37 1.41 1.38 1.45 1.71 1.83 1.87 2.01 2.16 2.23 2.35 2.27 2.12
2.47 2.35 2.26 2.25 2.26 2.10 2.07 2.04 1.99 1.91 1.81 1.70 1.60 1.54 1.46 1.26 1.04 0.91 0.97 1.10 1.28 1.30 1.27 1.26 1.34 1.35 1.34 1.30 1.34 1.46 1.51 1.50 1.29 1.30 1.37 1.51 1.61 1.76 1.91 2.06 2.31 2.50 2.31
2.07 1.90 1.81 1.89 1.98 1.86 1.76 1.73 1.73 1.74 1.73 1.64 1.49 1.45 1.42 1.38 1.25 1.06 1.05 1.09 1.23 1.27 1.35 1.33 1.27 1.28 1.32 1.27 1.37 1.56 1.57 1.53 1.41 1.36 1.48 1.58 1.58 1.70 1.80 1.95 2.26 2.39 2.24
1.83 1.73 1.73 1.70 1.71 1.67 1.68 1.68 1.62 1.56 1.61 1.64 1.59 1.47 1.37 1.27 1.17 1.05 1.01 0.92 1.05 1.19 1.26 1.34 1.28 1.21 1.19 1.21 1.34 1.44 1.46 1.45 1.57 1.70 1.71 1.68 1.69 1.76 1.78 1.84 2.09 2.25 2.28
1.70 1.63 1.69 1.66 1.55 1.62 1.79 1.73 1.67 1.67 1.65 1.62 1.62 1.51 1.31 1.18 1.04 0.93 0.93 0.94 0.99 1.14 1.26 1.29 1.25 1.19 1.17 1.22 1.25 1.31 1.34 1.42 1.62 1.82 1.83 1.74 1.64 1.61 1.66 1.71 1.89 2.07 2.13
1.70 1.65 1.57 1.50 1.59 1.66 1.78 1.73 1.65 1.61 1.50 1.38 1.35 1.31 1.19 1.06 0.93 0.86 0.86 0.92 1.00 1.06 1.14 1.19 1.16 1.16 1.16 1.27 1.31 1.33 1.43 1.62 1.76 1.83 1.84 1.77 1.68 1.61 1.61 1.60 1.72 1.95 1.96
1.77 1.70 1.55 1.45 1.44 1.50 1.56 1.58 1.50 1.42 1.34 1.25 1.19 1.13 1.08 1.05 0.94 0.85 0.85 0.88 0.93 1.00 1.04 1.10 1.17 1.23 1.25 1.36 1.49 1.57 1.61 1.68 1.67 1.80 1.87 1.79 1.68 1.65 1.66 1.64 1.77 1.89 1.93
1.66 1.51 1.39 1.26 1.22 1.27 1.27 1.26 1.25 1.15 1.11 1.09 1.00 0.93 0.99 0.99 0.90 0.90 0.87 0.87 0.90 0.93 0.96 1.10 1.32 1.37 1.46 1.55 1.60 1.64 1.69 1.63 1.58 1.61 1.71 1.76 1.78 1.71 1.65 1.60 1.74 1.81 1.89
1.55 1.31 1.15 1.07 1.03 0.95 0.92 0.94 0.94 0.93 0.92 0.86 0.86 0.83 0.78 0.77 0.76 0.77 0.80 0.85 0.89 0.96 1.00 1.17 1.29 1.35 1.45 1.51 1.54 1.54 1.58 1.60 1.54 1.55 1.60 1.63 1.65 1.63 1.66 1.61 1.66 1.83 1.90
1.34 1.14 0.96 0.90 0.90 0.86 0.86 0.95 0.98 0.85 0.81 0.77 0.78 0.77 0.75 0.71 0.68 0.74 0.84 0.92 1.01 1.13 1.21 1.32 1.30 1.36 1.44 1.42 1.42 1.44 1.48 1.51 1.46 1.47 1.45 1.46 1.50 1.50 1.57 1.61 1.59 1.66 1.68
1.02 0.95 0.89 0.87 0.83 0.77 0.74 0.82 0.93 1.01 0.98 0.86 0.79 0.79 0.74 0.77 0.78 0.82 0.92 0.98 1.12 1.26 1.33 1.39 1.40 1.39 1.42 1.42 1.43 1.43 1.39 1.35 1.33 1.38 1.42 1.44 1.46 1.43 1.44 1.45 1.46 1.48 1.56
0.83 0.82 0.83 0.82 0.76 0.71 0.67 0.68 0.71 0.81 0.93 0.96 0.89 0.88 0.88 0.92 0.95 0.99 1.03 1.05 1.17 1.27 1.29 1.33 1.38 1.37 1.35 1.42 1.40 1.34 1.27 1.24 1.26 1.27 1.30 1.36 1.40 1.34 1.35 1.32 1.31 1.34 1.40
0.73 0.73 0.76 0.74 0.74 0.76 0.73 0.71 0.74 0.78 0.85 0.90 0.92 0.90 0.95 1.04 1.10 1.12 1.12 1.10 1.11 1.15 1.16 1.18 1.16 1.17 1.25 1.32 1.28 1.20 1.14 1.17 1.23 1.24 1.25 1.24 1.23 1.23 1.24 1.24 1.24 1.27 1.32
0.68 0.69 0.71 0.66 0.68 0.72 0.76 0.81 0.84 0.86 0.89 0.97 0.98 1.00 1.02 1.03 1.12 1.11 1.12 1.10 1.04 1.05 1.08 1.08 1.05 1.04 1.10 1.18 1.19 1.15 1.09 1.09 1.10 1.15 1.18 1.16 1.14 1.14 1.09 1.09 1.13 1.15 1.16
0.81 0.78 0.70 0.67 0.66 0.66 0.68 0.77 0.92 1.03 1.07 1.08 1.07 1.03 1.04 0.97 1.03 1.07 1.07 1.06 1.02 1.01 0.99 0.99 0.93 0.94 1.00 1.08 1.12 1.09 1.05 1.02 1.05 1.09 1.09 1.07 1.05 1.05 1.04 1.04 1.06 1.11 1.10
0.82 0.81 0.79 0.80 0.74 0.74 0.73 0.75 0.87 0.97 1.03 1.13 1.12 1.04 0.98 0.96 1.00 1.04 1.03 0.92 0.81 0.79 0.81 0.88 0.90 0.87 0.89 0.93 0.92 0.93 0.94 0.97 1.00 1.01 1.01 0.97 0.98 0.97 0.97 0.97 0.94 1.00 1.04
0.84 0.83 0.87 0.91 0.86 0.82 0.78 0.77 0.83 0.86 0.86 0.94 1.02 1.00 0.98 0.99 0.95 0.90 0.86 0.75 0.66 0.66 0.68 0.72 0.80 0.84 0.86 0.85 0.83 0.82 0.81 0.84 0.86 0.83 0.83 0.86 0.89 0.87 0.89 0.91 0.91 0.93 0.97
0.82 0.87 0.90 0.89 0.89 0.86 0.80 0.75 0.78 0.78 0.79 0.85 0.92 0.92 0.88 0.87 0.88 0.87 0.81 0.75 0.69 0.66 0.64 0.63 0.65 0.70 0.75 0.73 0.72 0.72 0.75 0.79 0.78 0.75 0.71 0.72 0.75 0.78 0.85 0.89 0.90 0.93 0.94
0.60 0.70 0.82 0.85 0.87 0.86 0.82 0.79 0.79 0.79 0.79 0.80 0.80 0.81 0.80 0.79 0.79 0.79 0.75 0.71 0.67 0.64 0.60 0.56 0.54 0.57 0.62 0.65 0.66 0.67 0.66 0.64 0.64 0.69 0.68 0.69 0.73 0.76 0.80 0.85 0.84 0.90 0.97